Billings, MT

8:08 AM MST on December 05, 2016 (GMT -0700)
Billings Logan International

Weather History for KBIL - April, 2013

Change the Weather History Date:

Sunday, April 7, 2013

  Actual Average Record
Temperature  
Mean Temperature 46 °F 44 °F  
Max Temperature 59 °F 55 °F 77 °F (2005)
Min Temperature 32 °F 33 °F 16 °F (1997)
Degree Days  
Heating Degree Days 19 21  
Month to date heating degree days 117 155  
Since 1 July heating degree days 5520 5965  
Cooling Degree Days 0 0  
Month to date cooling degree days 0 0  
Year to date cooling degree days 0 0  
Moisture  
Dew Point 36 °F    
Average Humidity 70    
Maximum Humidity 100    
Minimum Humidity 39    
Precipitation  
Precipitation 0.36 in 0.05 in 0.61 in (1975)
Month to date precipitation 0.40 0.34  
Year to date precipitation 1.54 2.36  
Snow  
Snow T in 0.30 in 6.80 in (1997)
Month to date snowfall T 2.4  
Since 1 July snowfall 34.8 47.1  
Snow Depth 0.00 in    
Sea Level Pressure  
Sea Level Pressure 29.66 in    
Wind  
Wind Speed 8 mph (NNE)    
Max Wind Speed 29 mph    
Max Gust Speed 35 mph    
Visibility 9 miles    
Events Rain , Snow , Thunderstorm    
T = Trace of Precipitation, MM = Missing Value Source: NWS Daily Summary

Daily Weather History Graph

Daily Weather History Graph

Search for Another Location

Airport or City:

Trip Planner

Search our weather history database for the weather conditions in past years. The results will help you decide how hot, cold, wet, or windy it might be!

Date:

Astronomy

Apr. 07, 2013 Rise Set
Actual Time 6:42 AM MDT 7:50 PM MDT
Civil Twilight 6:11 AM MDT 8:21 PM MDT
Nautical Twilight 5:35 AM MDT 8:58 PM MDT
Astronomical Twilight 4:56 AM MDT 9:37 PM MDT
Moon 5:09 AM MDT (4/7) 5:20 PM MDT (4/7)
Length of Visible Light 14h 09m
Length of Day
13h 08m
Waning Crescent, 8% of the Moon is Illuminated
Apr 7
Waning Crescent
Apr 10
New
Apr 18
First Quarter
Apr 25
Full
May 2
Last Quarter

Hourly Weather History & Observations

Time (MDT) Temp. Windchill Dew Point Humidity Pressure Visibility Wind Dir Wind Speed Gust Speed Precip Events Conditions
12:53 AM 45.0 °F 41.2 °F 35.1 °F 68% 29.77 in 10.0 mi WSW 6.9 mph - N/A   Mostly Cloudy
1:53 AM 46.0 °F 42.5 °F 35.1 °F 66% 29.77 in 10.0 mi SW 6.9 mph - 0.00 in Rain Light Rain
2:53 AM 45.0 °F 39.7 °F 35.1 °F 68% 29.75 in 10.0 mi WSW 10.4 mph - 0.00 in   Overcast
3:53 AM 46.0 °F 42.5 °F 35.1 °F 66% 29.75 in 10.0 mi WSW 6.9 mph - 0.00 in   Overcast
4:53 AM 45.0 °F 41.2 °F 35.1 °F 68% 29.75 in 10.0 mi SW 6.9 mph - N/A   Overcast
5:53 AM 44.1 °F 41.5 °F 34.0 °F 68% 29.73 in 10.0 mi South 4.6 mph - N/A   Mostly Cloudy
6:53 AM 43.0 °F 40.3 °F 35.1 °F 74% 29.72 in 10.0 mi South 4.6 mph - N/A   Partly Cloudy
7:53 AM 44.1 °F 42.5 °F 35.1 °F 71% 29.72 in 10.0 mi SSE 3.5 mph - N/A   Partly Cloudy
8:53 AM 45.0 °F 43.5 °F 35.1 °F 68% 29.72 in 10.0 mi WSW 3.5 mph - N/A   Scattered Clouds
9:53 AM 48.0 °F - 36.0 °F 63% 29.70 in 10.0 mi SW 4.6 mph - N/A   Mostly Cloudy
10:53 AM 48.0 °F - 36.0 °F 63% 29.69 in 10.0 mi Calm Calm - N/A   Overcast
11:53 AM 52.0 °F - 36.0 °F 54% 29.64 in 10.0 mi East 8.1 mph - N/A   Scattered Clouds
12:53 PM 54.0 °F - 35.1 °F 49% 29.62 in 10.0 mi SW 4.6 mph - N/A   Overcast
1:53 PM 55.9 °F - 34.0 °F 44% 29.58 in 10.0 mi South 8.1 mph - N/A   Mostly Cloudy
2:53 PM 57.9 °F - 33.1 °F 39% 29.53 in 10.0 mi Variable 3.5 mph - N/A   Scattered Clouds
3:53 PM 57.9 °F - 32.0 °F 37% 29.51 in 10.0 mi SSE 4.6 mph - N/A   Mostly Cloudy
4:53 PM 51.1 °F - 37.0 °F 59% 29.54 in 10.0 mi West 8.1 mph - 0.00 in   Mostly Cloudy
5:53 PM 55.0 °F - 33.1 °F 43% 29.52 in 10.0 mi East 6.9 mph - N/A   Scattered Clouds
6:45 PM 48.9 °F - 37.9 °F 66% 29.55 in 10.0 mi NE 20.7 mph - N/A Thunderstorm Thunderstorm
6:53 PM 48.9 °F - 37.9 °F 66% 29.55 in 10.0 mi NE 20.7 mph - N/A Thunderstorm Thunderstorm
7:53 PM 45.0 °F 42.6 °F 39.9 °F 82% 29.60 in 6.0 mi ENE 4.6 mph - 0.06 in Rain Light Rain
8:18 PM 44.1 °F 40.1 °F 39.9 °F 85% 29.61 in 4.0 mi NNE 6.9 mph - 0.05 in Rain Rain
8:53 PM 43.0 °F 38.8 °F 42.1 °F 97% 29.65 in 6.0 mi North 6.9 mph - 0.14 in Rain Light Rain
9:28 PM 43.0 °F 36.0 °F 41.0 °F 93% 29.62 in 6.0 mi North 13.8 mph - 0.07 in Rain Light Rain
9:34 PM 42.1 °F 35.7 °F 41.0 °F 96% 29.63 in 9.0 mi North 11.5 mph - 0.08 in Rain Light Rain
9:40 PM 42.1 °F 35.2 °F 41.0 °F 96% 29.63 in 10.0 mi North 12.7 mph - 0.08 in Rain Light Rain
9:53 PM 42.1 °F 34.5 °F 39.9 °F 92% 29.65 in 10.0 mi North 15.0 mph - 0.09 in Rain Light Rain
10:11 PM 41.0 °F 32.8 °F 39.0 °F 93% 29.65 in 9.0 mi North 16.1 mph 25.3 mph 0.01 in Rain Light Rain
10:53 PM 37.0 °F 28.1 °F 35.1 °F 93% 29.69 in 6.0 mi North 15.0 mph - 0.04 in Rain Light Rain
11:01 PM 36.0 °F 26.0 °F 35.1 °F 97% 29.66 in 6.0 mi NNE 17.3 mph 25.3 mph 0.02 in Rain Light Rain
11:21 PM 34.0 °F 23.0 °F 33.1 °F 96% 29.67 in 6.0 mi NNE 18.4 mph - 0.03 in Snow Light Snow
11:40 PM 33.1 °F 23.0 °F 33.1 °F 100% 29.67 in 1.5 mi NNE 15.0 mph - 0.03 in Snow Light Snow
11:53 PM 33.1 °F 20.6 °F 32.0 °F 96% 29.70 in 3.0 mi NNE 23.0 mph - 0.03 in Snow Light Snow